Regional Weather Roundup
Issued by NWS

Home | Current Version | Previous Version | Graphics & Text | Print | Product List | Glossary On
Versions: 1 2 3 4 5 6 7 8 9 10 11 12 13 14 15 16 17 18 19 20 21 22 23 24 25 26 27 28 29 30 31 32 33 34 35 36 37 38 39 40 41 42 43 44 45 46 47 48 49 50
000
ASUS43 KLOT 050558
RWRIL

ILLINOIS REGIONAL WEATHER ROUNDUP
NATIONAL WEATHER SERVICE CHICAGO/ROMEOVILLE IL
1200 AM CST THU MAR 05 2015

NOTE: "FAIR" INDICATES FEW OR NO CLOUDS BELOW 12,000 FEET WITH NO
SIGNIFICANT WEATHER AND/OR OBSTRUCTIONS TO VISIBILITY.

* THESE STATIONS ARE NOT UNDER NWS QUALITY CONTROL. THEY ALSO MAY NOT
  REPORT WEATHER SUCH AS PRECIPITATION OR FOG.

ILZ001-002-007-009-015-016-024-050700-
NORTHWEST ILLINOIS

CITY           SKY/WX    TMP DP  RH WIND       PRES   REMARKS
MOLINE         MOCLDY    12   0  58 NW8       30.43R WCI   0
6HR MIN TEMP:  12; 6HR MAX TEMP:  17;

$$

ILZ003-004-008-010-011-017-018-050700-
NORTH CENTRAL ILLINOIS

CITY           SKY/WX    TMP DP  RH WIND       PRES   REMARKS
ROCKFORD       NOT AVBL
$$

ILZ005-006-012>014-019>023-050700-
NORTHEAST ILLINOIS

CITY           SKY/WX    TMP DP  RH WIND       PRES   REMARKS
CHICAGO-OHARE  MOCLDY    10  -2  58 NW12      30.34S WCI  -5
6HR MIN TEMP:  10; 6HR MAX TEMP:  17;

CHICAGO-MIDWAY NOT AVBL
AURORA         CLEAR      7  -3  64 NW14      30.36S WCI -10
6HR MIN TEMP:   7; 6HR MAX TEMP:  15;

WAUKEGAN       NOT AVBL
DUPAGE AIRPORT CLEAR      9  -3  58 NW12      30.34S WCI  -6
6HR MIN TEMP:   9; 6HR MAX TEMP:  16;

WHEELING       CLEAR     11  -3  53 NW8       30.36F WCI  -1
6HR MIN TEMP:  11; 6HR MAX TEMP:  18;

NORTHERLY ISL    N/A     16   1  51 N10         N/A  WCI   4
$$

LMZ740>746-050700-
SOUTHERN LAKE MICHIGAN

STATION/POSITION SKY/WX   TEMP    WIND        PRES    VSBY  WAVE
                          AIR SEA DIR/SP/G                  HT/PER
                          (F)     (DEG/KT/KT) (MB)    (MI)  (FT/S)
WAUKEGAN HARBOR            12                   N/A
HARRISON CRIB              16     310/ 17/ 21   N/A
BURNHAM HARBOR             16     310/  5/ 13   N/A
CALUMET HARBOR             15     290/  7/ 13 1026.3R
MICHIGAN CITY              16     280/ 13/ 14   N/A
$$

ILZ025>027-034>036-040-047-049-050-058-095>099-050700-
WEST-CENTRAL ILLINOIS

CITY           SKY/WX    TMP DP  RH WIND       PRES   REMARKS
$$

ILZ028>032-037-038-041>044-048-051>054-059>061-050700-
CENTRAL ILLINOIS

CITY           SKY/WX    TMP DP  RH WIND       PRES   REMARKS
PEORIA         NOT AVBL
SPRINGFIELD    PTCLDY    18   4  54 N7        30.40R WCI   9
6HR MIN TEMP:  17; 6HR MAX TEMP:  21;

TAYLORVILLE    NOT AVBL
$$

ILZ033-039-045-046-055>057-062-063-050700-
EAST-CENTRAL ILLINOIS

CITY           SKY/WX    TMP DP  RH WIND       PRES   REMARKS
MATTOON        CLOUDY    17   8  67 N13       30.33F WCI   4
$$

ILZ079-100>102-050700-
SOUTHWEST ILLINOIS

CITY           SKY/WX    TMP DP  RH WIND       PRES   REMARKS
CAHOKIA*       CLOUDY    23   7  50 N8        30.38F WCI  14
$$

ILZ064>066-069>071-074>076-080>082-084>086-088>090-092>094-050700-
SOUTH-CENTRAL ILLINOIS

CITY           SKY/WX    TMP DP  RH WIND       PRES   REMARKS
CARBONDALE     CLOUDY    21   6  52 N10       30.36R WCI  10
6HR MIN TEMP:  18; 6HR MAX TEMP:  21; 6HR PCP:  0.01;

$$

ILZ067-068-072-073-078-083-087-091-050700-
SOUTHEAST ILLINOIS

CITY           SKY/WX    TMP DP  RH WIND       PRES   REMARKS
LAWRENCEVILLE  CLOUDY    20   7  57 N16G23    30.33S WCI   6
$$

ABBREVIATIONS USED IN REMARKS
   TC - TEMPERATURE IN CELSIUS
  WCI - WIND CHILL INDEX
   HX - HEAT INDEX
  VSB - VISIBILITY
$$




USA.gov is the U.S. government's official web portal to all federal, state and local government web resources and services.